This is the latest recevied weather packets stored in our database for station/object EB5AGF-13. If no packets are shown the sender has not sent any weather packets the latest 10 day(s).
| Time | Temp. | Humidity | Pressure | Rain* | Wind** | Luminosity | Snow |
|---|---|---|---|---|---|---|---|
| 1777842812 | 19.44° C | 88% | 1011.5 hPa | 0 mm | 1.34 m/s, 198° | 0 W/m² | - |
| 1777842512 | 19.44° C | 88% | 1011.5 hPa | 0 mm | 1.79 m/s, 177° | 0 W/m² | - |
| 1777842212 | 19.44° C | 88% | 1011.3 hPa | 0 mm | 1.79 m/s, 173° | 0 W/m² | - |
| 1777841913 | 19.44° C | 88% | 1011.1 hPa | 0 mm | 1.34 m/s, 176° | 0 W/m² | - |
| 1777841612 | 19.44° C | 87% | 1011 hPa | 0 mm | 1.34 m/s, 220° | 0 W/m² | - |
| 1777841312 | 19.44° C | 87% | 1011.1 hPa | 0 mm | 0.89 m/s, 176° | 0 W/m² | - |
| 1777841012 | 19.44° C | 87% | 1011.2 hPa | 0 mm | 0.89 m/s, 226° | 0 W/m² | - |
| 1777840712 | 19.44° C | 87% | 1011 hPa | 0 mm | 0.45 m/s, 215° | 0 W/m² | - |
| 1777840413 | 19.44° C | 88% | 1011 hPa | 0 mm | 1.34 m/s, 204° | 0 W/m² | - |
| 1777840112 | 19.44° C | 88% | 1010.9 hPa | 0 mm | 0 m/s | 0 W/m² | - |
| 1777839812 | 19.44° C | 88% | 1010.9 hPa | 0 mm | 1.79 m/s, 211° | 0 W/m² | - |
| 1777839512 | 19.44° C | 88% | 1011 hPa | 0 mm | 0.89 m/s, 220° | 0 W/m² | - |
| 1777839212 | 19.44° C | 87% | 1010.8 hPa | 0 mm | 0.89 m/s, 293° | 0 W/m² | - |
| 1777838912 | 19.44° C | 86% | 1010.9 hPa | 0 mm | 0.45 m/s, 303° | 0 W/m² | - |
| 1777838612 | 19.44° C | 86% | 1010.8 hPa | 0 mm | 0.89 m/s, 219° | 0 W/m² | - |
| 1777838312 | 19.44° C | 86% | 1010.7 hPa | 0 mm | 1.34 m/s, 220° | 0 W/m² | - |
| 1777838012 | 19.44° C | 86% | 1010.4 hPa | 0 mm | 1.79 m/s, 268° | 0 W/m² | - |
| 1777837713 | 20° C | 84% | 1010.4 hPa | 0 mm | 2.68 m/s, 190° | 0 W/m² | - |
| 1777837412 | 20° C | 84% | 1010.3 hPa | 0 mm | 0 m/s | 0 W/m² | - |
| 1777837112 | 20° C | 85% | 1010.4 hPa | 0 mm | 0.45 m/s, 199° | 0 W/m² | - |
| 1777836812 | 20° C | 84% | 1010.3 hPa | 0 mm | 0.89 m/s, 208° | 0 W/m² | - |
| 1777836512 | 20° C | 83% | 1010.2 hPa | 0 mm | 2.24 m/s, 210° | 0 W/m² | - |
| 1777836213 | 20° C | 83% | 1010.1 hPa | 0 mm | 0.45 m/s, 10° | 0 W/m² | - |
| 1777835912 | 20° C | 83% | 1009.9 hPa | 0 mm | 0.89 m/s, 206° | 0 W/m² | - |
| 1777835610 | 20° C | 83% | 1010 hPa | 0 mm | 0.89 m/s, 277° | 0 W/m² | - |
* Rain latest hour (hover to see other rain measurements)
** Current wind speed in m/s (hover to see current wind gust speed)